"Period start","avg(HW err(1)/warn(2) (#))","avg(Visibility (m))","avg(Weather code (#))","avg(Precip intensity (mm/h))","min(HW err(1)/warn(2) (#))","max(HW err(1)/warn(2) (#))","std(HW err(1)/warn(2) (#))","med(HW err(1)/warn(2) (#))","min(Visibility (m))","max(Visibility (m))","std(Visibility (m))","med(Visibility (m))","min(Weather code (#))","max(Weather code (#))","std(Weather code (#))","med(Weather code (#))","min(Precip intensity (mm/h))","max(Precip intensity (mm/h))","std(Precip intensity (mm/h))","med(Precip intensity (mm/h))"
2016-12-14 00:00:00,1,,,,1,1,0,1,,,,,,,,,,,,
2016-12-14 00:10:00,1,,,,1,1,0,1,,,,,,,,,,,,
2016-12-14 00:20:00,1,,,,1,1,0,1,,,,,,,,,,,,
2016-12-14 00:30:00,1,,,,1,1,0,1,,,,,,,,,,,,
2016-12-14 00:40:00,1,,,,1,1,0,1,,,,,,,,,,,,
2016-12-14 00:50:00,1,,,,1,1,0,1,,,,,,,,,,,,
2016-12-14 01:00:00,1,,,,1,1,0,1,,,,,,,,,,,,
2016-12-14 01:10:00,1,,,,1,1,0,1,,,,,,,,,,,,
2016-12-14 01:20:00,1,,,,1,1,0,1,,,,,,,,,,,,
2016-12-14 01:30:00,1,,,,1,1,0,1,,,,,,,,,,,,
2016-12-14 01:40:00,1,,,,1,1,0,1,,,,,,,,,,,,
2016-12-14 01:50:00,1,,,,1,1,0,1,,,,,,,,,,,,
2016-12-14 02:00:00,1,,,,1,1,0,1,,,,,,,,,,,,
2016-12-14 02:10:00,1,,,,1,1,0,1,,,,,,,,,,,,
2016-12-14 02:20:00,1,,,,1,1,0,1,,,,,,,,,,,,
2016-12-14 02:30:00,1,,,,1,1,0,1,,,,,,,,,,,,
2016-12-14 02:40:00,1,,,,1,1,0,1,,,,,,,,,,,,
2016-12-14 02:50:00,1,,,,1,1,0,1,,,,,,,,,,,,
2016-12-14 03:00:00,1,,,,1,1,0,1,,,,,,,,,,,,
2016-12-14 03:10:00,1,,,,1,1,0,1,,,,,,,,,,,,
2016-12-14 03:20:00,1,,,,1,1,0,1,,,,,,,,,,,,
2016-12-14 03:30:00,1,,,,1,1,0,1,,,,,,,,,,,,
2016-12-14 03:40:00,1,,,,1,1,0,1,,,,,,,,,,,,
2016-12-14 03:50:00,1,,,,1,1,0,1,,,,,,,,,,,,
2016-12-14 04:00:00,1,,,,1,1,0,1,,,,,,,,,,,,
2016-12-14 04:10:00,1,,,,1,1,0,1,,,,,,,,,,,,
2016-12-14 04:20:00,1,,,,1,1,0,1,,,,,,,,,,,,
2016-12-14 04:30:00,1,,,,1,1,0,1,,,,,,,,,,,,
2016-12-14 04:40:00,1,,,,1,1,0,1,,,,,,,,,,,,
2016-12-14 04:50:00,1,,,,1,1,0,1,,,,,,,,,,,,
2016-12-14 05:00:00,2,47584,0,0.00,1,2,0,2,35958,50000,4723,50000,0,0,0,0,0.00,0.00,0.00,0.00
2016-12-14 05:10:00,2,37881,0,0.00,2,2,0,2,22697,49898,8359,37892,0,0,0,0,0.00,0.00,0.00,0.00
2016-12-14 05:20:00,2,50000,0,0.00,2,2,0,2,50000,50000,0,50000,0,0,0,0,0.00,0.00,0.00,0.00
2016-12-14 05:30:00,2,25784,0,0.00,2,2,0,2,15569,49701,12267,19798,0,0,0,0,0.00,0.00,0.00,0.00
2016-12-14 05:40:00,2,49570,0,0.00,2,2,0,2,45703,50000,1289,50000,0,0,0,0,0.00,0.00,0.00,0.00
2016-12-14 05:50:00,2,46350,0,0.00,2,2,0,2,24237,50000,7786,50000,0,0,0,0,0.00,0.00,0.00,0.00
2016-12-14 06:00:00,2,13552,3,0.00,2,2,0,2,3655,37434,9957,9546,0,10,5,0,0.00,0.00,0.00,0.00
2016-12-14 06:10:00,2,49121,0,0.00,2,2,0,2,46201,50000,1265,49972,0,0,0,0,0.00,0.00,0.00,0.00
2016-12-14 06:20:00,2,48106,0,0.00,2,2,0,2,39802,50000,3060,49836,0,0,0,0,0.00,0.00,0.00,0.00
2016-12-14 06:30:00,2,39807,0,0.00,2,2,0,2,7917,50000,13316,45224,0,0,0,0,0.00,0.00,0.00,0.00
2016-12-14 06:40:00,2,9025,3,0.00,2,2,0,2,6433,13945,2308,8256,0,10,5,0,0.00,0.00,0.00,0.00
2016-12-14 06:50:00,2,8967,10,0.00,2,2,0,2,6099,13887,2174,8182,10,10,0,10,0.00,0.00,0.00,0.00
2016-12-14 07:00:00,2,7040,9,0.00,2,2,0,2,3062,11690,2826,7205,0,10,3,10,0.00,0.00,0.00,0.00
2016-12-14 07:10:00,2,4766,10,0.00,2,2,0,2,2488,9126,2092,4316,10,10,0,10,0.00,0.00,0.00,0.00
2016-12-14 07:20:00,2,4747,10,0.00,2,2,0,2,3195,6405,1055,4649,10,10,0,10,0.00,0.00,0.00,0.00
2016-12-14 07:30:00,2,3482,10,0.00,2,2,0,2,1223,6771,2098,2646,10,10,0,10,0.00,0.00,0.00,0.00
2016-12-14 07:40:00,2,2810,10,0.00,2,2,0,2,1204,7600,1965,1656,10,10,0,10,0.00,0.00,0.00,0.00
2016-12-14 07:50:00,2,4744,10,0.00,2,2,0,2,2388,7417,1762,4097,10,10,0,10,0.00,0.00,0.00,0.00
2016-12-14 08:00:00,2,8865,9,0.00,2,2,0,2,4761,15752,4122,6818,0,10,3,10,0.00,0.00,0.00,0.00
2016-12-14 08:10:00,2,4391,10,0.00,2,2,0,2,2554,8074,1457,4134,10,10,0,10,0.00,0.00,0.00,0.00
2016-12-14 08:20:00,2,3595,10,0.00,2,2,0,2,2192,6119,1244,3369,10,10,0,10,0.00,0.00,0.00,0.00
2016-12-14 08:30:00,2,2411,10,0.00,2,2,0,2,1867,3479,452,2376,10,10,0,10,0.00,0.00,0.00,0.00
2016-12-14 08:40:00,2,2527,10,0.00,2,2,0,2,1452,4531,925,2336,10,10,0,10,0.00,0.00,0.00,0.00
2016-12-14 08:50:00,2,5749,10,0.00,2,2,0,2,2921,10316,2255,5587,10,10,0,10,0.00,0.00,0.00,0.00
2016-12-14 09:00:00,2,2485,10,0.00,2,2,0,2,1480,3594,644,2660,10,10,0,10,0.00,0.00,0.00,0.00
2016-12-14 09:10:00,2,2228,10,0.00,2,2,0,2,1519,2930,436,2134,10,10,0,10,0.00,0.00,0.00,0.00
2016-12-14 09:20:00,2,3697,10,0.00,2,2,0,2,1420,6426,1671,3350,10,10,0,10,0.00,0.00,0.00,0.00
2016-12-14 09:30:00,2,1145,63,0.04,2,2,0,2,723,1496,232,1116,10,78,27,78,0.00,0.10,0.04,0.05
2016-12-14 09:40:00,1,848,78,0.03,1,2,0,1,0,1442,616,1103,78,78,0,78,0.00,0.05,0.02,0.05
2016-12-14 09:50:00,1,,,,1,1,0,1,,,,,,,,,,,,
2016-12-14 10:00:00,1,,,,1,1,0,1,,,,,,,,,,,,
2016-12-14 10:10:00,1,,,,1,1,0,1,,,,,,,,,,,,
2016-12-14 10:20:00,1,,,,1,1,0,1,,,,,,,,,,,,
2016-12-14 10:30:00,1,,,,1,1,0,1,,,,,,,,,,,,
2016-12-14 10:40:00,1,,,,1,1,0,1,,,,,,,,,,,,
2016-12-14 10:50:00,1,,,,1,1,0,1,,,,,,,,,,,,
2016-12-14 11:00:00,1,,,,1,1,0,1,,,,,,,,,,,,
2016-12-14 11:10:00,1,,,,1,1,0,1,,,,,,,,,,,,
2016-12-14 11:20:00,1,,,,1,1,0,1,,,,,,,,,,,,
2016-12-14 11:30:00,1,,,,1,1,0,1,,,,,,,,,,,,
2016-12-14 11:40:00,1,,,,1,1,0,1,,,,,,,,,,,,
2016-12-14 11:50:00,1,0,,0.00,1,2,0,1,0,0,0,0,,,,,0.00,0.00,0.00,0.00
2016-12-14 12:00:00,1,,,,1,1,0,1,,,,,,,,,,,,
2016-12-14 12:10:00,1,,,,1,1,0,1,,,,,,,,,,,,
2016-12-14 12:20:00,2,24541,0,0.00,1,2,0,2,0,50000,13662,24994,0,0,0,0,0.00,0.00,0.00,0.00
2016-12-14 12:30:00,2,40636,0,0.00,2,2,0,2,23148,50000,9901,44048,0,0,0,0,0.00,0.00,0.00,0.00
2016-12-14 12:40:00,2,49460,0,0.00,2,2,0,2,47224,50000,1080,50000,0,0,0,0,0.00,0.00,0.00,0.00
2016-12-14 12:50:00,2,40401,0,0.00,2,2,0,2,17409,50000,12198,50000,0,0,0,0,0.00,0.00,0.00,0.00
2016-12-14 13:00:00,2,29484,0,0.00,2,2,0,2,9751,41449,10033,32516,0,0,0,0,0.00,0.00,0.00,0.00
2016-12-14 13:10:00,2,16379,0,0.00,2,2,0,2,5660,35820,9581,12301,0,0,0,0,0.00,0.00,0.00,0.00
2016-12-14 13:20:00,2,44673,0,0.00,2,2,0,2,34099,50000,5372,46010,0,0,0,0,0.00,0.00,0.00,0.00
2016-12-14 13:30:00,2,21971,0,0.00,2,2,0,2,8714,34229,9760,24364,0,0,0,0,0.00,0.00,0.00,0.00
2016-12-14 13:40:00,2,39844,0,0.00,2,2,0,2,27921,50000,7862,40810,0,0,0,0,0.00,0.00,0.00,0.00
2016-12-14 13:50:00,2,13860,0,0.00,2,2,0,2,4981,26085,6414,12534,0,0,0,0,0.00,0.00,0.00,0.00
2016-12-14 14:00:00,2,10439,3,0.00,2,2,0,2,3374,32483,10249,6101,0,10,5,0,0.00,0.00,0.00,0.00
2016-12-14 14:10:00,2,7667,10,0.00,2,2,0,2,5186,10116,1340,7826,10,10,0,10,0.00,0.00,0.00,0.00
2016-12-14 14:20:00,2,17248,10,0.00,2,2,0,2,5831,37592,10537,13194,10,10,0,10,0.00,0.00,0.00,0.00
2016-12-14 14:30:00,2,35581,2,0.00,2,2,0,2,18571,50000,11178,38057,0,10,4,0,0.00,0.00,0.00,0.00
2016-12-14 14:40:00,2,30137,0,0.00,2,2,0,2,7110,50000,17177,33657,0,0,0,0,0.00,0.00,0.00,0.00
2016-12-14 14:50:00,2,45930,0,0.00,2,2,0,2,38965,50000,3091,45839,0,0,0,0,0.00,0.00,0.00,0.00
2016-12-14 15:00:00,2,40580,0,0.00,2,2,0,2,21528,50000,10763,47100,0,0,0,0,0.00,0.00,0.00,0.00
2016-12-14 15:10:00,2,42996,0,0.00,2,2,0,2,31816,50000,6458,44112,0,0,0,0,0.00,0.00,0.00,0.00
2016-12-14 15:20:00,2,49050,0,0.00,2,2,0,2,43764,50000,1868,50000,0,0,0,0,0.00,0.00,0.00,0.00
2016-12-14 15:30:00,2,49684,0,0.00,2,2,0,2,47063,50000,876,50000,0,0,0,0,0.00,0.00,0.00,0.00
2016-12-14 15:40:00,2,41975,0,0.00,2,2,0,2,35532,46912,3441,42675,0,0,0,0,0.00,0.00,0.00,0.00
2016-12-14 15:50:00,2,35906,0,0.00,2,2,0,2,14405,50000,11000,40640,0,0,0,0,0.00,0.00,0.00,0.00
2016-12-14 16:00:00,2,36583,0,0.00,2,2,0,2,15432,50000,13091,40739,0,0,0,0,0.00,0.00,0.00,0.00
2016-12-14 16:10:00,2,34932,0,0.00,2,2,0,2,20452,47992,7184,35704,0,0,0,0,0.00,0.00,0.00,0.00
2016-12-14 16:20:00,2,48062,0,0.00,2,2,0,2,42287,50000,3000,50000,0,0,0,0,0.00,0.00,0.00,0.00
2016-12-14 16:30:00,2,48687,0,0.00,2,2,0,2,42701,50000,2647,50000,0,0,0,0,0.00,0.00,0.00,0.00
2016-12-14 16:40:00,2,49102,0,0.00,2,2,0,2,45902,50000,1560,50000,0,0,0,0,0.00,0.00,0.00,0.00
2016-12-14 16:50:00,2,50000,0,0.00,2,2,0,2,50000,50000,0,50000,0,0,0,0,0.00,0.00,0.00,0.00
2016-12-14 17:00:00,2,49880,0,0.00,2,2,0,2,48798,50000,361,50000,0,0,0,0,0.00,0.00,0.00,0.00
2016-12-14 17:10:00,2,50000,0,0.00,2,2,0,2,50000,50000,0,50000,0,0,0,0,0.00,0.00,0.00,0.00
2016-12-14 17:20:00,2,50000,0,0.00,2,2,0,2,50000,50000,0,50000,0,0,0,0,0.00,0.00,0.00,0.00
2016-12-14 17:30:00,2,50000,0,0.00,2,2,0,2,50000,50000,0,50000,0,0,0,0,0.00,0.00,0.00,0.00
2016-12-14 17:40:00,2,50000,0,0.00,2,2,0,2,50000,50000,0,50000,0,0,0,0,0.00,0.00,0.00,0.00
2016-12-14 17:50:00,2,50000,0,0.00,2,2,0,2,50000,50000,0,50000,0,0,0,0,0.00,0.00,0.00,0.00
2016-12-14 18:00:00,2,50000,0,0.00,2,2,0,2,50000,50000,0,50000,0,0,0,0,0.00,0.00,0.00,0.00
2016-12-14 18:10:00,2,49716,0,0.00,2,2,0,2,47164,50000,851,50000,0,0,0,0,0.00,0.00,0.00,0.00
2016-12-14 18:20:00,2,49824,0,0.00,2,2,0,2,48241,50000,528,50000,0,0,0,0,0.00,0.00,0.00,0.00
2016-12-14 18:30:00,2,49916,0,0.00,2,2,0,2,49484,50000,173,50000,0,0,0,0,0.00,0.00,0.00,0.00
2016-12-14 18:40:00,2,50000,0,0.00,2,2,0,2,50000,50000,0,50000,0,0,0,0,0.00,0.00,0.00,0.00
2016-12-14 18:50:00,2,50000,0,0.00,2,2,0,2,50000,50000,0,50000,0,0,0,0,0.00,0.00,0.00,0.00
2016-12-14 19:00:00,2,49959,0,0.00,2,2,0,2,49589,50000,123,50000,0,0,0,0,0.00,0.00,0.00,0.00
2016-12-14 19:10:00,2,49976,0,0.00,2,2,0,2,49762,50000,71,50000,0,0,0,0,0.00,0.00,0.00,0.00
2016-12-14 19:20:00,2,49968,0,0.00,2,2,0,2,49677,50000,97,50000,0,0,0,0,0.00,0.00,0.00,0.00
2016-12-14 19:30:00,2,50000,0,0.00,2,2,0,2,50000,50000,0,50000,0,0,0,0,0.00,0.00,0.00,0.00
2016-12-14 19:40:00,2,50000,0,0.00,2,2,0,2,50000,50000,0,50000,0,0,0,0,0.00,0.00,0.00,0.00
2016-12-14 19:50:00,2,49958,0,0.00,2,2,0,2,49582,50000,125,50000,0,0,0,0,0.00,0.00,0.00,0.00
2016-12-14 20:00:00,2,50000,0,0.00,2,2,0,2,50000,50000,0,50000,0,0,0,0,0.00,0.00,0.00,0.00
2016-12-14 20:10:00,2,50000,0,0.00,2,2,0,2,50000,50000,0,50000,0,0,0,0,0.00,0.00,0.00,0.00
2016-12-14 20:20:00,2,50000,0,0.00,2,2,0,2,50000,50000,0,50000,0,0,0,0,0.00,0.00,0.00,0.00
2016-12-14 20:30:00,2,50000,0,0.00,2,2,0,2,50000,50000,0,50000,0,0,0,0,0.00,0.00,0.00,0.00
2016-12-14 20:40:00,2,49996,0,0.00,2,2,0,2,49955,50000,14,50000,0,0,0,0,0.00,0.00,0.00,0.00
2016-12-14 20:50:00,2,50000,0,0.00,2,2,0,2,50000,50000,0,50000,0,0,0,0,0.00,0.00,0.00,0.00
2016-12-14 21:00:00,2,50000,0,0.00,2,2,0,2,50000,50000,0,50000,0,0,0,0,0.00,0.00,0.00,0.00
2016-12-14 21:10:00,2,49875,0,0.00,2,2,0,2,48746,50000,376,50000,0,0,0,0,0.00,0.00,0.00,0.00
2016-12-14 21:20:00,2,50000,0,0.00,2,2,0,2,50000,50000,0,50000,0,0,0,0,0.00,0.00,0.00,0.00
2016-12-14 21:30:00,2,50000,0,0.00,2,2,0,2,50000,50000,0,50000,0,0,0,0,0.00,0.00,0.00,0.00
2016-12-14 21:40:00,2,49945,0,0.00,2,2,0,2,49544,50000,137,50000,0,0,0,0,0.00,0.00,0.00,0.00
2016-12-14 21:50:00,2,50000,0,0.00,2,2,0,2,50000,50000,0,50000,0,0,0,0,0.00,0.00,0.00,0.00
2016-12-14 22:00:00,2,49851,0,0.00,2,2,0,2,48507,50000,448,50000,0,0,0,0,0.00,0.00,0.00,0.00
2016-12-14 22:10:00,2,50000,0,0.00,2,2,0,2,50000,50000,0,50000,0,0,0,0,0.00,0.00,0.00,0.00
2016-12-14 22:20:00,2,50000,0,0.00,2,2,0,2,50000,50000,0,50000,0,0,0,0,0.00,0.00,0.00,0.00
2016-12-14 22:30:00,2,50000,0,0.00,2,2,0,2,50000,50000,0,50000,0,0,0,0,0.00,0.00,0.00,0.00
2016-12-14 22:40:00,2,50000,0,0.00,2,2,0,2,50000,50000,0,50000,0,0,0,0,0.00,0.00,0.00,0.00
2016-12-14 22:50:00,2,49992,0,0.00,2,2,0,2,49925,50000,22,50000,0,0,0,0,0.00,0.00,0.00,0.00
2016-12-14 23:00:00,2,49959,0,0.00,2,2,0,2,49593,50000,122,50000,0,0,0,0,0.00,0.00,0.00,0.00
2016-12-14 23:10:00,2,49862,0,0.00,2,2,0,2,48625,50000,412,50000,0,0,0,0,0.00,0.00,0.00,0.00
2016-12-14 23:20:00,2,50000,0,0.00,2,2,0,2,50000,50000,0,50000,0,0,0,0,0.00,0.00,0.00,0.00
2016-12-14 23:30:00,2,50000,0,0.00,2,2,0,2,50000,50000,0,50000,0,0,0,0,0.00,0.00,0.00,0.00
2016-12-14 23:40:00,2,49912,0,0.00,2,2,0,2,49122,50000,263,50000,0,0,0,0,0.00,0.00,0.00,0.00
2016-12-14 23:50:00,2,49904,0,0.00,2,2,0,2,49041,50000,288,50000,0,0,0,0,0.00,0.00,0.00,0.00
